Cosmos 1544 - Orbit

View from above orbital plane
View from above orbital plane
View from above satellite
View from above satellite

Ground track
Ground track

The orbit data is extracted from the following two-line orbital elements,

1 14819U 84027A   13141.84169772  .00004062  00000-0  22671-3 0  6505
2 14819 082.4924 069.9967 0018582 185.5433 232.0818 15.13141290589804
Epoch (UTC): 21 May 2013 20:12:02
Eccentricity: 0.0018582
inclination: 82.4924°
perigee height: 514 km
apogee height: 539 km
right ascension of ascending node: 69.9967°
argument of perigee: 185.5433°
revolutions per day: 15.13141290
mean anomaly at epoch: 232.0818°
orbit number at epoch: 58980

The dashed part of the orbit path shows where the satellite is in the earth's shadow,  

Developed and maintained by Chris Peat, Heavens-Above GmbH. Please read the updated FAQ before sending e-mail. Imprint. DLR